Regional Weather Roundup
Issued by NWS

Home | Current Version | Previous Version | Graphics & Text | Print | Product List | Glossary On
Versions: 1 2 3 4 5 6 7 8 9 10 11 12 13 14 15 16 17 18 19 20 21 22 23 24 25 26 27 28 29 30 31 32 33 34 35 36 37 38 39 40 41 42 43 44 45 46 47 48 49 50
000
ASUS43 KDTX 190801
RWRMI
MICHIGAN HOURLY REGIONAL WEATHER ROUNDUP
NATIONAL WEATHER SERVICE DETROIT/PONTIAC MI
400 AM EDT TUE SEP 19 2017

NOTE: "FAIR" INDICATES FEW OR NO CLOUDS BELOW 12,000 FEET WITH NO
SIGNIFICANT WEATHER AND/OR OBSTRUCTION TO VISIBILITY.

MIZ047>049-052>055-059>063-066>070-074>076-081>083-190900-
SOUTHEAST LOWER MICHIGAN

CITY           SKY/WX    TMP DP  RH WIND       PRES   REMARKS
ADRIAN         CLOUDY    64  60  87 E7        30.01F
ALMA           CLOUDY    52  50  93 CALM      30.04F
ANN ARBOR      CLOUDY    64  57  78 NE5       30.01F
BAD AXE        PTCLDY    49  48  96 CALM      30.05F FOG
CARO           PTCLDY    55  52  92 CALM      30.03F
DETROIT CITY   CLOUDY    64  60  87 CALM      30.02S
DETROIT        CLOUDY    65  60  84 NE6       30.01F
FLINT          CLOUDY    57  54  89 NE3       30.03F
GROSSE ILE     CLOUDY    64  63  94 NE5       30.00S
HILLSDALE      FOG       63  61  94 E3        30.01S VSB 3/4
HOWELL         CLOUDY    57  55  92 CALM      30.02F

CITY           SKY/WX    TMP DP  RH WIND       PRES   REMARKS
JACKSON        CLOUDY    64  59  83 E7        30.01F
LAMBERTVILLE   CLOUDY    66  63  90 CALM      29.99F
LANSING        PTCLDY    57  53  86 E3        30.03F
LAPEER         CLOUDY    57  55  93 CALM      30.03F
MASON          CLOUDY    60  57  89 CALM      30.03S
MONROE         CLOUDY    65  62  90 CALM      30.00F
MT. CLEMENS    CLOUDY    62  62 100 N3        30.00F
PONTIAC        CLOUDY    62  56  80 E3        30.01F
PORT HOPE        N/A     63  57  81 NE8       30.04F
PORT HURON     CLOUDY    64  61  88 CALM      30.02F
TRI CITIES     MOCLDY    55  53  93 N5        30.05F
MIDLAND        FAIR      52  52 100 NW3       30.04F
TROY           CLOUDY    63  59  86 N3        30.04S
SAGINAW HB     MOCLDY    52  50  93 CALM      30.04S
$$
MIZ043>046-050>051-056>058-064>065-071>073-077>080-190900-
SOUTHWEST LOWER MICHIGAN

CITY           SKY/WX    TMP DP  RH WIND       PRES   REMARKS
BATTLE CREEK   CLOUDY    67  65  93 VRB5      30.01F FOG
BENTON HARBOR  LGT RAIN  63  59  87 E6        29.96S
BIG RAPIDS     MOCLDY    56  54  95 CALM      30.03F
COLDWATER      CLOUDY    66  66 100 SE8       29.99F FOG
FREMONT        MOCLDY    60  57  89 E5        30.00F
HOLLAND        CLOUDY    63  59  87 E8        29.99S
GRAND RAPIDS   CLOUDY    62  60  93 E8        30.00F
IONIA          FAIR      58  57  96 NE6       30.01F
KALAMAZOO      CLOUDY    67  62  84 CALM      29.99F HAZE
LUDINGTON      CLOUDY    57  54  88 CALM      30.01R
MARSHALL       CLOUDY    64  64  98 CALM      29.99F FOG
MOUNT PLEASANT CLOUDY    56  55  97 N3        30.04F
MUSKEGON       CLOUDY    62  58  86 E8        29.99F
SOUTH HAVEN    CLOUDY    63  61  94 E6        29.97F
$$
MIZ016>042-190900-
NORTHERN LOWER MICHIGAN

CITY           SKY/WX    TMP DP  RH WIND       PRES   REMARKS
ALPENA         CLEAR     47  46  97 CALM      30.08S
BEAVER ISLAND  CLOUDY    56  54  91 E3        30.08R
CADILLAC       CLOUDY    55  53  91 E5        30.04F
CHARLEVOIX     CLOUDY    55  50  85 CALM      30.10R
FRANKFORT      CLOUDY    60  55  86 CALM      30.03S
GAYLORD        MOCLDY    51  44  77 CALM      30.07S
GRAYLING       PTCLDY    45  42  91 CALM      30.07F
HARBOR SPRINGS CLOUDY    54  52  95 NE5       30.06F
HOUGHTON LAKE  PTCLDY    46  45  96 E5        30.06F
MANISTEE       CLOUDY    58  55  90 E7        30.01R
OSCODA         PTCLDY    47  46  96 NW3       30.05F
PELLSTON       CLOUDY    49  47  93 CALM      30.07F
ROGERS CITY    CLEAR     49  47  96 CALM      30.08F
TRAVERSE CITY  CLOUDY    58  52  80 N3        30.04R
$$
MIZ007>008-015-190900-
EASTERN UPPER MICHIGAN

CITY           SKY/WX    TMP DP  RH WIND       PRES   REMARKS
KINROSS        CLOUDY    56  51  84 NE7       30.09R
MACKINAC ISLAN CLOUDY    57  52  85 N3        30.07R
NEWBERRY       CLOUDY    52  51  97 CALM      30.09R
S. S. MARIE    CLOUDY    57  51  80 E5        30.08S
MUNISING         N/A     55  52  89 CALM      30.08S
$$
MIZ004>006-011>014-085-190900-
CENTRAL UPPER MICHIGAN

CITY           SKY/WX    TMP DP  RH WIND       PRES   REMARKS
MANISTIQUE     CLOUDY    52  47  81 N5        30.08R
ESCANABA       CLOUDY    56  53  90 N3        30.07S
MENOMINEE      LGT RAIN  57  54  89 NE8       30.05F
SAWYER-GWINN   CLOUDY    55  52  92 E5        30.07F
$$
MIZ001>003-009>011-084-190900-
WESTERN UPPER MICHIGAN

CITY           SKY/WX    TMP DP  RH WIND       PRES   REMARKS
IRON MOUNTAIN  CLOUDY    57  51  80 E5        30.04F
HOUGHTON       CLOUDY    56  54  93 E8        30.04S
COPPER HARBOR    N/A     57  53  86 S7        30.04F
IRONWOOD       CLOUDY    55  53  93 NE3       30.01F
$$

ABBREVIATIONS USED IN REMARKS
   TC - TEMPERATURE IN CELSIUS
  WCI - WIND CHILL INDEX
   HX - HEAT INDEX
  VSB - VISIBILITY




USA.gov is the U.S. government's official web portal to all federal, state and local government web resources and services.